seed: p2v3s22

Total games: 181


  • Filter by # of Players
  • Filter by Score
  • Filter by Variant



ID # of Players Score Variant Date & Time Players
9821 2 30 Rainbow (6 Suits) 2018-08-20 — 00:36:39 UTC efemural, jean
39886 2 30 Rainbow (6 Suits) 2019-05-29 — 22:13:04 UTC lh, Sh
55938 2 30 Rainbow (6 Suits) 2019-09-22 — 17:22:46 UTC hbjornoy, heddav
79841 2 30 Rainbow (6 Suits) 2020-02-13 — 22:45:04 UTC fh_monday, fr
95608 2 30 Rainbow (6 Suits) 2020-03-24 — 01:37:57 UTC hu.mab, Stradguy
111150 2 30 Rainbow (6 Suits) 2020-04-06 — 03:34:54 UTC butterflyd, emdog
112041 2 30 Rainbow (6 Suits) 2020-04-06 — 23:58:52 UTC Axineld, rfrank27
118552 2 30 Rainbow (6 Suits) 2020-04-12 — 03:19:22 UTC dewey, liwei
118748 2 30 Rainbow (6 Suits) 2020-04-12 — 05:32:48 UTC raphtown, regirock
131165 2 30 Rainbow (6 Suits) 2020-04-21 — 01:27:11 UTC benwake, Cornflake62
145699 2 30 Rainbow (6 Suits) 2020-05-01 — 01:06:54 UTC choonabi, ClandestineClue
146766 2 30 Rainbow (6 Suits) 2020-05-01 — 18:51:21 UTC opurtell, pfinley
173525 2 30 Rainbow (6 Suits) 2020-05-20 — 02:02:05 UTC Aluap, antitelharsic
180595 2 30 Rainbow (6 Suits) 2020-05-25 — 02:04:18 UTC baozi, moontwist11
202784 2 30 Rainbow (6 Suits) 2020-06-11 — 20:47:21 UTC pokgai1, seefut
219401 2 30 Rainbow (6 Suits) 2020-06-26 — 14:11:43 UTC Fuuut, Reinier
225604 2 30 Rainbow (6 Suits) 2020-07-01 — 16:49:54 UTC Göttertöter, Macert
234019 2 30 Rainbow (6 Suits) 2020-07-09 — 06:16:31 UTC aridante, nostalgiccat
240612 2 30 Rainbow (6 Suits) 2020-07-15 — 19:29:23 UTC Ewan, Willoughby
257125 2 30 Rainbow (6 Suits) 2020-07-31 — 14:23:41 UTC Lee3, RickSanchez
269883 2 30 Rainbow (6 Suits) 2020-08-13 — 18:54:09 UTC gwenhwyfar, meeree
286781 2 30 Rainbow (6 Suits) 2020-09-02 — 00:42:39 UTC evieisbad, ijs
289477 2 30 Rainbow (6 Suits) 2020-09-05 — 03:25:40 UTC muddy, Olorin
293636 2 30 Rainbow (6 Suits) 2020-09-09 — 23:31:49 UTC johnboy81918, Stephzheng
299552 2 30 Rainbow (6 Suits) 2020-09-17 — 06:29:53 UTC JustusR, TymeHanabi
322224 2 30 Rainbow (6 Suits) 2020-10-17 — 15:25:53 UTC rea, Skippy
342952 2 30 Rainbow (6 Suits) 2020-11-14 — 02:31:05 UTC coachamera, jasmine
351698 2 30 Rainbow (6 Suits) 2020-11-23 — 15:29:19 UTC callistooooooo, newacc
379216 2 30 Rainbow (6 Suits) 2020-12-22 — 23:28:46 UTC oatty, sunflower
399026 2 30 Rainbow (6 Suits) 2021-01-10 — 08:30:43 UTC Cold, Shad_Crow
401367 2 30 Rainbow (6 Suits) 2021-01-12 — 21:31:20 UTC C0000kiemonster, socerman
426288 2 30 Rainbow (6 Suits) 2021-02-05 — 06:17:49 UTC n21, other
440977 2 30 Rainbow (6 Suits) 2021-02-18 — 18:28:18 UTC aesophsfables, shocksteel
455531 2 30 Rainbow (6 Suits) 2021-03-03 — 20:05:33 UTC gubs, mumbai
459723 2 30 Rainbow (6 Suits) 2021-03-07 — 03:11:36 UTC gsug, ohughes
480853 2 30 Rainbow (6 Suits) 2021-03-26 — 03:12:04 UTC hambrenson, veganpecan
487372 2 30 Rainbow (6 Suits) 2021-04-01 — 14:10:37 UTC Durandal, HelanaAshryvr
504328 2 30 Rainbow (6 Suits) 2021-04-17 — 18:42:01 UTC Frozen_Animal, Macs_girl
535661 2 30 Rainbow (6 Suits) 2021-05-20 — 15:40:25 UTC MarieX, Theklaj
553315 2 30 Rainbow (6 Suits) 2021-06-06 — 18:43:33 UTC JonathanHicks, sole.garcia
558256 2 30 Rainbow (6 Suits) 2021-06-10 — 17:08:30 UTC infinity00, zetty0817
568981 2 30 Rainbow (6 Suits) 2021-06-21 — 19:46:58 UTC Alex92, DoraEs
570666 2 30 Rainbow (6 Suits) 2021-06-23 — 02:40:45 UTC eoehlsen, tantum1
574057 2 30 Rainbow (6 Suits) 2021-06-25 — 23:40:39 UTC boobailey808, Mustang949
591157 2 30 Rainbow (6 Suits) 2021-07-17 — 19:29:16 UTC prancer, sen88
612328 2 30 Rainbow (6 Suits) 2021-08-21 — 19:44:11 UTC Blaster---, gsmboy
615346 2 30 Rainbow (6 Suits) 2021-08-26 — 11:30:14 UTC ombrien, Sonea
593249 2 29 Rainbow (6 Suits) 2021-07-21 — 05:25:32 UTC dingyue, jch1234456324
11410 2 28 Rainbow (6 Suits) 2018-10-05 — 23:09:43 UTC Andrew_UK, scharkbite
63741 2 28 Rainbow (6 Suits) 2019-11-09 — 22:27:02 UTC fivefives, jwngr
156298 2 28 Rainbow (6 Suits) 2020-05-07 — 22:24:52 UTC Crivens, miriamattia
165784 2 28 Rainbow (6 Suits) 2020-05-14 — 18:21:48 UTC Ch1cken, frollo9386
218258 2 28 Rainbow (6 Suits) 2020-06-25 — 17:54:57 UTC clspencer, sjforion
244363 2 28 Rainbow (6 Suits) 2020-07-19 — 00:29:53 UTC danguskhan, jaycanplay
247921 2 28 Rainbow (6 Suits) 2020-07-22 — 19:22:32 UTC aewyna, Shinja
269529 2 28 Rainbow (6 Suits) 2020-08-13 — 04:34:38 UTC anhnguyen, Starhobo07
296244 2 28 Rainbow (6 Suits) 2020-09-12 — 23:22:04 UTC Bjuuti, markus1
334741 2 28 Rainbow (6 Suits) 2020-11-03 — 22:03:44 UTC eMeRGeD, lorenzo1
375071 2 28 Rainbow (6 Suits) 2020-12-18 — 22:58:02 UTC mdubz, tossevent
399788 2 28 Rainbow (6 Suits) 2021-01-11 — 02:56:19 UTC FrozenAnimal, Macsgirl
465644 2 28 Rainbow (6 Suits) 2021-03-12 — 14:50:19 UTC LauraMietz, Nico123
484577 2 28 Rainbow (6 Suits) 2021-03-29 — 18:42:00 UTC explorerus, raphaeleon
496999 2 28 Rainbow (6 Suits) 2021-04-11 — 04:23:23 UTC Dawit, Neema
560246 2 28 Rainbow (6 Suits) 2021-06-12 — 05:58:32 UTC lampshader, rainboy
576055 2 28 Rainbow (6 Suits) 2021-06-28 — 01:46:32 UTC Offset, SpinTop
48032 2 27 Rainbow (6 Suits) 2019-07-27 — 23:17:38 UTC Sadret, Sharklah
168734 2 27 Rainbow (6 Suits) 2020-05-16 — 18:00:37 UTC Crivens_Temp, eliyahu
175389 2 27 Rainbow (6 Suits) 2020-05-21 — 15:40:21 UTC callistooooo, eljobe
201730 2 27 Rainbow (6 Suits) 2020-06-10 — 20:46:06 UTC Isa, pixieawa
282821 2 27 Rainbow (6 Suits) 2020-08-28 — 19:39:53 UTC ihavenoidea, VerySloppyTwo
314443 2 27 Rainbow (6 Suits) 2020-10-06 — 20:34:20 UTC adi1, anusha2
336632 2 27 Rainbow (6 Suits) 2020-11-06 — 03:40:47 UTC Bprrg, toddskinner
376803 2 27 Rainbow (6 Suits) 2020-12-20 — 15:03:31 UTC Azul, Matías_V5
405052 2 27 Rainbow (6 Suits) 2021-01-16 — 08:20:50 UTC ElizabethLee, jarhill0
417619 2 27 Rainbow (6 Suits) 2021-01-28 — 16:19:32 UTC lcflorencelo, slyrk
579755 2 27 Rainbow (6 Suits) 2021-07-01 — 19:05:58 UTC Frozen_Animal_, Macs_girl_
628470 2 27 Rainbow (6 Suits) 2021-09-18 — 02:04:14 UTC butterflydem2, Notgolfing
43320 2 26 Rainbow (6 Suits) 2019-06-27 — 02:58:55 UTC Emily, J3enjamin
84241 2 26 Rainbow (6 Suits) 2020-02-29 — 01:06:01 UTC iggy2foots, logiciain
156064 2 26 Rainbow (6 Suits) 2020-05-07 — 18:57:15 UTC alicia_atsg, robj
186092 2 26 Rainbow (6 Suits) 2020-05-29 — 07:08:02 UTC smallman, ssunfly
214343 2 26 Rainbow (6 Suits) 2020-06-21 — 19:58:13 UTC adik, oldgreg
315366 2 26 Rainbow (6 Suits) 2020-10-08 — 00:25:30 UTC hu.man01, Stradguy1
459221 2 26 Rainbow (6 Suits) 2021-03-06 — 21:56:17 UTC Junkrat, QP
217546 2 25 Rainbow (6 Suits) 2020-06-25 — 00:31:22 UTC mirza, shhh
309371 2 25 Rainbow (6 Suits) 2020-09-30 — 00:48:32 UTC BobbyK, jmcatamney
607178 2 25 Rainbow (6 Suits) 2021-08-14 — 00:03:21 UTC Aroma1997, EsorX
416700 2 24 Rainbow (6 Suits) 2021-01-27 — 20:39:04 UTC ajsehifowha, dunes1
139096 2 23 Rainbow (6 Suits) 2020-04-26 — 06:22:22 UTC Justinp420 , RickIsNotMe
188300 2 23 Rainbow (6 Suits) 2020-05-31 — 00:33:17 UTC mmv, tneerukonda
531885 2 23 Rainbow (6 Suits) 2021-05-16 — 17:43:56 UTC Pete2, Pugsister1
333155 2 22 Rainbow (6 Suits) 2020-11-02 — 00:13:56 UTC elsring, missporbothe1st
4211 2 0 Rainbow (6 Suits) 2018-03-19 — 01:08:07 UTC florrat2, NotRaKXeR
5408 2 0 Rainbow (6 Suits) 2018-04-21 — 19:50:23 UTC Libster, Zamiel
16159 2 0 Rainbow (6 Suits) 2018-12-31 — 19:54:40 UTC demochi, pepsicola
20372 2 0 Rainbow (6 Suits) 2019-02-19 — 03:11:10 UTC Feer, zerlick
36549 2 0 Rainbow (6 Suits) 2019-05-09 — 03:43:36 UTC becksgl, comfyc
64176 2 0 Rainbow (6 Suits) 2019-11-12 — 10:24:52 UTC asaelr, Dr_Kakashi
79009 2 0 Rainbow (6 Suits) 2020-02-11 — 19:07:10 UTC RaKXeR, sankala fan
91553 2 0 Rainbow (6 Suits) 2020-03-18 — 21:49:32 UTC kawsn13, Nigr
92444 2 0 Rainbow (6 Suits) 2020-03-20 — 02:53:58 UTC antizoubilamaka, link825
95104 2 0 Rainbow (6 Suits) 2020-03-23 — 13:33:11 UTC anto.mazzo, mauro
100262 2 0 Rainbow (6 Suits) 2020-03-28 — 21:41:14 UTC ArcheNoah, Sunny_Hanabi
102123 2 0 Rainbow (6 Suits) 2020-03-30 — 01:48:18 UTC hellococo, math444
111799 2 0 Rainbow (6 Suits) 2020-04-06 — 21:21:50 UTC bfichera, brami
115826 2 0 Rainbow (6 Suits) 2020-04-10 — 17:58:24 UTC Joost, Thomas1234
116243 2 0 Rainbow (6 Suits) 2020-04-10 — 22:29:29 UTC khushi, neerav
124450 2 0 Rainbow (6 Suits) 2020-04-16 — 20:35:59 UTC Fedorov, geor1983
129080 2 0 Rainbow (6 Suits) 2020-04-19 — 17:26:05 UTC bornagy, nandu13
130539 2 0 Rainbow (6 Suits) 2020-04-20 — 14:38:45 UTC Hawlucha, mperera
133324 2 0 Rainbow (6 Suits) 2020-04-22 — 20:21:22 UTC mglanzer, rfrank
137607 2 0 Rainbow (6 Suits) 2020-04-25 — 13:26:57 UTC alanpotato, Roroast
143289 2 0 Rainbow (6 Suits) 2020-04-29 — 09:05:57 UTC Dilshaad, Dimithi
146725 2 0 Rainbow (6 Suits) 2020-05-01 — 18:10:29 UTC Nils, robense
146817 2 0 Rainbow (6 Suits) 2020-05-01 — 19:35:11 UTC gaocow, paperairplane69
149480 2 0 Rainbow (6 Suits) 2020-05-03 — 03:48:54 UTC jalmenda, zmill415
149840 2 0 Rainbow (6 Suits) 2020-05-03 — 07:04:23 UTC oatmilk, sundried_tomato
149866 2 0 Rainbow (6 Suits) 2020-05-03 — 07:18:22 UTC WadeYao, weijing
158041 2 0 Rainbow (6 Suits) 2020-05-09 — 04:09:51 UTC Brownp, dcrawford
158801 2 0 Rainbow (6 Suits) 2020-05-09 — 19:00:45 UTC Allemoor, Kilkame
160099 2 0 Rainbow (6 Suits) 2020-05-10 — 06:31:19 UTC KlyGuy, Rick
164226 2 0 Rainbow (6 Suits) 2020-05-13 — 11:12:54 UTC Guamo, larki
172590 2 0 Rainbow (6 Suits) 2020-05-19 — 05:33:01 UTC annieboboh, penguin69
175779 2 0 Rainbow (6 Suits) 2020-05-21 — 22:28:29 UTC TheDaniMan, wshin0104
183651 2 0 Rainbow (6 Suits) 2020-05-27 — 13:46:23 UTC Anaïs, Lissange
190753 2 0 Rainbow (6 Suits) 2020-06-01 — 22:06:59 UTC buxtehude11, yee claw
199712 2 0 Rainbow (6 Suits) 2020-06-09 — 02:15:26 UTC mfl, vmplays
201915 2 0 Rainbow (6 Suits) 2020-06-10 — 23:33:34 UTC RespectCaviar, schemetrical
217740 2 0 Rainbow (6 Suits) 2020-06-25 — 02:19:50 UTC lrovner, maxnorris13
219774 2 0 Rainbow (6 Suits) 2020-06-26 — 21:48:29 UTC dramos, glauberdlg
229090 2 0 Rainbow (6 Suits) 2020-07-04 — 10:55:36 UTC higamel, Maestra
232762 2 0 Rainbow (6 Suits) 2020-07-08 — 01:34:37 UTC budabloom, mindabloom
238900 2 0 Rainbow (6 Suits) 2020-07-14 — 04:25:51 UTC julian5, Laura17
239174 2 0 Rainbow (6 Suits) 2020-07-14 — 17:33:56 UTC Barthe, roosmariej
243490 2 0 Rainbow (6 Suits) 2020-07-18 — 03:55:45 UTC kawol, SEKs
295405 2 0 Rainbow (6 Suits) 2020-09-12 — 03:40:42 UTC mbluewolverine, Ornamentalist
296185 2 0 Rainbow (6 Suits) 2020-09-12 — 22:30:51 UTC helicopter, ichaelm
299490 2 0 Rainbow (6 Suits) 2020-09-17 — 04:54:07 UTC erinselene, Ota
302081 2 0 Rainbow (6 Suits) 2020-09-20 — 03:35:57 UTC heftych1, kimgannon
302144 2 0 Rainbow (6 Suits) 2020-09-20 — 04:37:25 UTC mmsieth, Samantha
317274 2 0 Rainbow (6 Suits) 2020-10-10 — 11:33:04 UTC lvlotiejus52, motiejus52
317337 2 0 Rainbow (6 Suits) 2020-10-10 — 15:18:31 UTC BlueNovember, Pantheia
318373 2 0 Rainbow (6 Suits) 2020-10-11 — 23:11:23 UTC etyg, klshen
325514 2 0 Rainbow (6 Suits) 2020-10-22 — 03:33:05 UTC gsherm, timt
348285 2 0 Rainbow (6 Suits) 2020-11-20 — 01:50:52 UTC anser, william65537
349195 2 0 Rainbow (6 Suits) 2020-11-21 — 02:57:15 UTC mrpoopybutthole, Mrspoopy
349371 2 0 Rainbow (6 Suits) 2020-11-21 — 05:18:01 UTC mmk2, rpbd
352143 2 0 Rainbow (6 Suits) 2020-11-24 — 02:06:28 UTC maryplantthomas, philipgerstoft
360088 2 0 Rainbow (6 Suits) 2020-12-04 — 00:12:32 UTC Jake_Stiles, rz
367212 2 0 Rainbow (6 Suits) 2020-12-11 — 00:29:53 UTC KitKat13, torp
368782 2 0 Rainbow (6 Suits) 2020-12-12 — 09:32:01 UTC Alchemist75, victorywys
392966 2 0 Rainbow (6 Suits) 2021-01-05 — 02:35:05 UTC boodles100, sleibson
393199 2 0 Rainbow (6 Suits) 2021-01-05 — 06:38:51 UTC boba, Etherealz
394216 2 0 Rainbow (6 Suits) 2021-01-06 — 04:39:16 UTC Laure, Shazaaaaam
409426 2 0 Rainbow (6 Suits) 2021-01-20 — 08:09:44 UTC i421, yotamamir
413113 2 0 Rainbow (6 Suits) 2021-01-24 — 02:42:26 UTC joeyjojo17, tacobot5000
416733 2 0 Rainbow (6 Suits) 2021-01-27 — 21:01:23 UTC john120283, princeton
419423 2 0 Rainbow (6 Suits) 2021-01-30 — 03:50:02 UTC Bageer, beanstalk2
435557 2 0 Rainbow (6 Suits) 2021-02-13 — 07:41:14 UTC Lampz, Mage
437100 2 0 Rainbow (6 Suits) 2021-02-14 — 18:18:49 UTC paari, peponenazionale
441931 2 0 Rainbow (6 Suits) 2021-02-19 — 13:32:39 UTC jule_2000, wiedervergessen
445534 2 0 Rainbow (6 Suits) 2021-02-22 — 15:39:26 UTC macanek, need4speed
449652 2 0 Rainbow (6 Suits) 2021-02-26 — 05:43:46 UTC bockers, Meghan1234567
455714 2 0 Rainbow (6 Suits) 2021-03-03 — 23:37:25 UTC elsa96, EricSean
473676 2 0 Rainbow (6 Suits) 2021-03-19 — 17:29:22 UTC Footscrayzy, Noble
477039 2 0 Rainbow (6 Suits) 2021-03-22 — 19:11:35 UTC enkimdu, Ritz1974
489447 2 0 Rainbow (6 Suits) 2021-04-03 — 17:01:32 UTC SuperKaczor, wygrywamalbonie
494267 2 0 Rainbow (6 Suits) 2021-04-08 — 21:18:57 UTC andybergon, saraquarantine
501906 2 0 Rainbow (6 Suits) 2021-04-15 — 16:43:13 UTC ATrueZen, dj.narayanan
521365 2 0 Rainbow (6 Suits) 2021-05-05 — 15:52:49 UTC itchy, tactical
535210 2 0 Rainbow (6 Suits) 2021-05-20 — 01:41:38 UTC jean_franc_bleu, loohye
540707 2 0 Rainbow (6 Suits) 2021-05-26 — 02:27:11 UTC boggle, Scarlet24
543376 2 0 Rainbow (6 Suits) 2021-05-29 — 03:27:52 UTC FizzyLizzy123, TiiJei
543642 2 0 Rainbow (6 Suits) 2021-05-29 — 13:59:00 UTC Wheatie, wifeofwheatie
562813 2 0 Rainbow (6 Suits) 2021-06-14 — 18:19:06 UTC asdfasdfasdA, Helllooooooo
567375 2 0 Rainbow (6 Suits) 2021-06-19 — 05:12:47 UTC melodyw, premc
610806 2 0 Rainbow (6 Suits) 2021-08-19 — 21:38:56 UTC Charles123123, wardsux1
617672 2 0 Rainbow (6 Suits) 2021-08-30 — 10:26:30 UTC HanabOfficial, lamington
619156 2 0 Rainbow (6 Suits) 2021-09-01 — 19:37:02 UTC asdasdasda, JTJTJTJTJT
619629 2 0 Rainbow (6 Suits) 2021-09-02 — 04:30:59 UTC AJNOLAN95, DaVeryGoodWaaan
627888 2 0 Rainbow (6 Suits) 2021-09-17 — 00:58:47 UTC MrSheep, tc2020